Location: Newark
(42.7133°N, 87.7910°W)
Time: 04:49:08
(UTC+00:00)

Vanguard 1 - Pass Details

Date: 26 September 2019
Orbit: 653 x 3830 km, 34.2° (Epoch: 17 October)

Event Time Altitude Azimuth Distance (km) Brightness Sun altitude
Rises 13:35:55 0° 283° (WNW) 7,541 14.0 19.5°
Reaches altitude 10° 13:43:11 10° 271° (W) 6,044 13.6 20.7°
Maximum altitude 13:54:28 21° 231° (SW) 4,146 13.1 22.6°
Drops below altitude 10° 14:02:28 10° 187° (S) 4,109 13.6 24.0°
Sets 14:06:11 0° 171° (S) 4,641 14.0 24.6°
